| time (UTC) | temp F | wind direction | speed MPH | gust MPH | rain 1hr in | rain 24hr in | rain mn in | humidity % | barometer mb |
| 20260903111021 | 71 | 356 | 5.0 | 12.0 | 0.00 | 0.00 | 0.00 | 83 | 1018.8 |
| 20260903110523 | 71 | 302 | 5.0 | 16.0 | 0.00 | 0.00 | 0.00 | 83 | 1018.7 |
| 20260903110020 | 71 | 307 | 7.0 | 16.0 | 0.00 | 0.00 | 0.00 | 83 | 1018.7 |
| 20260903105024 | 71 | 41 | 9.0 | 23.0 | 0.00 | 0.00 | 0.00 | 82 | 1018.6 |
| 20260903104021 | 73 | 150 | 7.0 | 16.0 | 0.00 | 0.00 | 0.00 | 81 | 1018.5 |
| 20260903103517 | 72 | 338 | 7.0 | 18.0 | 0.00 | 0.00 | 0.00 | 83 | 1018.6 |
| 20260903102519 | 71 | 160 | 7.0 | 23.0 | 0.00 | 0.00 | 0.00 | 84 | 1018.6 |
| 20260903102013 | 69 | 320 | 9.0 | 23.0 | 0.00 | 0.00 | 0.00 | 86 | 1018.7 |
| 20260903101515 | 69 | 271 | 7.0 | 20.0 | 0.00 | 0.00 | 0.00 | 86 | 1018.8 |
| 20260903101014 | 69 | 280 | 7.0 | 20.0 | 0.00 | 0.00 | 0.00 | 87 | 1018.8 |
| 20260903100510 | 68 | 323 | 9.0 | 20.0 | 0.00 | 0.00 | 0.00 | 86 | 1018.8 |
| 20260903100013 | 68 | 283 | 9.0 | 18.0 | 0.00 | 0.00 | 0.00 | 87 | 1019.0 |
| 20260903095508 | 68 | 213 | 7.0 | 16.0 | 0.00 | 0.00 | 0.00 | 87 | 1018.8 |
| 20260903095008 | 68 | 308 | 9.0 | 16.0 | 0.00 | 0.00 | 0.00 | 87 | 1018.7 |
| 20260903094509 | 68 | 305 | 7.0 | 16.0 | 0.00 | 0.00 | 0.00 | 86 | 1018.6 |
| 20260903094009 | 68 | 293 | 5.0 | 18.0 | 0.00 | 0.00 | 0.00 | 86 | 1018.5 |
| 20260903093507 | 68 | 268 | 7.0 | 18.0 | 0.00 | 0.00 | 0.00 | 86 | 1018.5 |
| 20260903093009 | 68 | 285 | 9.0 | 16.0 | 0.00 | 0.00 | 0.00 | 86 | 1018.3 |
| 20260903092505 | 68 | 315 | 7.0 | 20.0 | 0.00 | 0.00 | 0.00 | 86 | 1018.3 |
| 20260903092006 | 68 | 291 | 7.0 | 20.0 | 0.00 | 0.00 | 0.00 | 86 | 1018.4 |
| 20260903091504 | 68 | 304 | 5.0 | 18.0 | 0.00 | 0.00 | 0.00 | 86 | 1018.3 |
| 20260903091005 | 68 | 349 | 5.0 | 20.0 | 0.00 | 0.00 | 0.00 | 86 | 1018.2 |
| 20260903090504 | 68 | 280 | 5.0 | 20.0 | 0.00 | 0.00 | 0.00 | 86 | 1018.3 |
| 20260903090002 | 68 | 327 | 5.0 | 18.0 | 0.00 | 0.00 | 0.00 | 86 | 1018.2 |
| 20260903085504 | 68 | 307 | 5.0 | 18.0 | 0.00 | 0.00 | 0.00 | 86 | 1018.2 |
| 20260903084504 | 68 | 262 | 5.0 | 18.0 | 0.00 | 0.00 | 0.00 | 86 | 1018.2 |
| 20260903084003 | 68 | 296 | 7.0 | 18.0 | 0.00 | 0.00 | 0.00 | 86 | 1018.0 |
| 20260903083505 | 68 | 318 | 5.0 | 16.0 | 0.00 | 0.00 | 0.00 | 85 | 1018.1 |
| 20260903083003 | 68 | 308 | 5.0 | 14.0 | 0.00 | 0.00 | 0.00 | 85 | 1018.1 |
| 20260903082503 | 68 | 203 | 5.0 | 14.0 | 0.00 | 0.00 | 0.00 | 85 | 1018.2 |
| 20260903082004 | 68 | 298 | 7.0 | 16.0 | 0.00 | 0.00 | 0.00 | 85 | 1018.3 |
| 20260903081501 | 68 | 328 | 7.0 | 18.0 | 0.00 | 0.00 | 0.00 | 85 | 1018.3 |
| 20260903081003 | 68 | 166 | 5.0 | 18.0 | 0.00 | 0.00 | 0.00 | 85 | 1018.3 |
| 20260903080501 | 68 | 301 | 5.0 | 18.0 | 0.00 | 0.00 | 0.00 | 85 | 1018.2 |
| 20260903080004 | 68 | 280 | 7.0 | 16.0 | 0.00 | 0.00 | 0.00 | 85 | 1018.2 |
| 20260903075457 | 68 | 299 | 9.0 | 18.0 | 0.00 | 0.00 | 0.00 | 85 | 1018.1 |
| 20260903074948 | 68 | 201 | 9.0 | 22.0 | 0.00 | 0.00 | 0.00 | 85 | 1018.1 |
| 20260903074449 | 68 | 332 | 7.0 | 25.0 | 0.00 | 0.00 | 0.00 | 85 | 1018.1 |
| 20260903072946 | 68 | 183 | 7.0 | 29.0 | 0.00 | 0.00 | 0.00 | 84 | 1018.1 |
| 20260903072449 | 68 | 325 | 7.0 | 22.0 | 0.00 | 0.00 | 0.00 | 84 | 1018.1 |
| 20260903071948 | 68 | 293 | 9.0 | 25.0 | 0.00 | 0.00 | 0.00 | 84 | 1018.1 |
| 20260903071446 | 68 | 285 | 9.0 | 25.0 | 0.00 | 0.00 | 0.00 | 84 | 1018.0 |
| 20260903070947 | 68 | 315 | 9.0 | 22.0 | 0.00 | 0.00 | 0.00 | 84 | 1017.9 |
| 20260903070444 | 68 | 291 | 7.0 | 22.0 | 0.00 | 0.00 | 0.00 | 84 | 1017.9 |
| 20260903065944 | 68 | 8 | 7.0 | 20.0 | 0.00 | 0.00 | 0.00 | 84 | 1017.9 |
| 20260903065440 | 68 | 324 | 7.0 | 20.0 | 0.00 | 0.00 | 0.00 | 84 | 1017.7 |
| 20260903064940 | 68 | 311 | 7.0 | 25.0 | 0.00 | 0.00 | 0.00 | 84 | 1017.8 |
| 20260903064441 | 68 | 299 | 7.0 | 25.0 | 0.00 | 0.00 | 0.00 | 84 | 1017.9 |
| 20260903063440 | 67 | 297 | 7.0 | 27.0 | 0.00 | 0.00 | 0.00 | 84 | 1017.6 |
| 20260903062441 | 67 | 270 | 5.0 | 18.0 | 0.00 | 0.00 | 0.00 | 84 | 1017.6 |
| 20260903061940 | 67 | 268 | 5.0 | 18.0 | 0.00 | 0.00 | 0.00 | 84 | 1017.7 |
| 20260903061440 | 67 | 300 | 4.0 | 11.0 | 0.00 | 0.00 | 0.00 | 83 | 1017.5 |
| 20260903060941 | 67 | 304 | 5.0 | 18.0 | 0.00 | 0.00 | 0.00 | 83 | 1017.7 |
| 20260903060434 | 67 | 313 | 7.0 | 20.0 | 0.00 | 0.00 | 0.00 | 83 | 1017.8 |
| 20260903055936 | 67 | 15 | 5.0 | 20.0 | 0.00 | 0.00 | 0.00 | 83 | 1017.8 |
| 20260903055432 | 67 | 278 | 4.0 | 11.0 | 0.00 | 0.00 | 0.00 | 83 | 1017.7 |
| 20260903054430 | 67 | 317 | 5.0 | 14.0 | 0.00 | 0.00 | 0.00 | 83 | 1017.6 |
| 20260903053930 | 67 | 301 | 5.0 | 12.0 | 0.00 | 0.00 | 0.00 | 82 | 1017.6 |
| 20260903052429 | 67 | 285 | 5.0 | 16.0 | 0.00 | 0.00 | 0.00 | 82 | 1017.8 |
| 20260903051927 | 67 | 284 | 5.0 | 20.0 | 0.00 | 0.00 | 0.00 | 82 | 1017.8 |
| 20260903051427 | 67 | 307 | 5.0 | 20.0 | 0.00 | 0.00 | 0.00 | 81 | 1017.6 |
| 20260903050926 | 67 | 43 | 5.0 | 12.0 | 0.00 | 0.00 | 0.00 | 81 | 1017.7 |
| 20260903050426 | 67 | 147 | 5.0 | 12.0 | 0.00 | 0.00 | 0.00 | 81 | 1017.7 |
| 20260903045926 | 67 | 4 | 4.0 | 12.0 | 0.00 | 0.00 | 0.00 | 80 | 1017.7 |
| 20260903045423 | 67 | 334 | 4.0 | 18.0 | 0.00 | 0.00 | 0.00 | 80 | 1017.6 |
| 20260903044921 | 67 | 304 | 4.0 | 18.0 | 0.00 | 0.00 | 0.00 | 79 | 1017.4 |
| 20260903044420 | 67 | 319 | 4.0 | 14.0 | 0.00 | 0.00 | 0.00 | 79 | 1017.6 |
| 20260903043921 | 67 | 175 | 4.0 | 14.0 | 0.00 | 0.00 | 0.00 | 78 | 1017.4 |
| 20260903043420 | 67 | 306 | 4.0 | 14.0 | 0.00 | 0.00 | 0.00 | 77 | 1017.5 |
| 20260903042922 | 67 | 280 | 4.0 | 14.0 | 0.00 | 0.00 | 0.00 | 77 | 1017.6 |
| 20260903042422 | 67 | 303 | 4.0 | 14.0 | 0.00 | 0.00 | 0.00 | 75 | 1017.6 |
| 20260903041920 | 67 | 339 | 4.0 | 12.0 | 0.00 | 0.00 | 0.00 | 75 | 1017.7 |
| 20260903041420 | 67 | 301 | 4.0 | 20.0 | 0.00 | 0.00 | 0.00 | 74 | 1017.7 |
| 20260903040421 | 67 | 176 | 5.0 | 14.0 | 0.00 | 0.00 | 0.00 | 74 | 1017.9 |
| 20260903035919 | 67 | 206 | 4.0 | 16.0 | 0.00 | 0.00 | 0.00 | 74 | 1017.9 |
| 20260903035416 | 68 | 263 | 4.0 | 16.0 | 0.00 | 0.00 | 0.00 | 75 | 1017.9 |
| 20260903034416 | 68 | 83 | 5.0 | 16.0 | 0.00 | 0.00 | 0.00 | 75 | 1018.0 |
| 20260903033409 | 68 | 308 | 5.0 | 18.0 | 0.00 | 0.00 | 0.00 | 75 | 1017.8 |
| 20260903032406 | 68 | 345 | 5.0 | 14.0 | 0.00 | 0.00 | 0.00 | 74 | 1017.8 |
| 20260903031906 | 68 | 160 | 4.0 | 12.0 | 0.00 | 0.00 | 0.00 | 73 | 1017.9 |
| 20260903031407 | 68 | 325 | 5.0 | 16.0 | 0.00 | 0.00 | 0.00 | 73 | 1018.1 |
| 20260903030907 | 68 | 289 | 5.0 | 16.0 | 0.00 | 0.00 | 0.00 | 73 | 1017.9 |
| 20260903030405 | 67 | 309 | 4.0 | 14.0 | 0.00 | 0.00 | 0.00 | 73 | 1018.1 |
| 20260903025906 | 67 | 226 | 4.0 | 12.0 | 0.00 | 0.00 | 0.00 | 74 | 1018.2 |
| 20260903025403 | 66 | 328 | 2.0 | 12.0 | 0.00 | 0.00 | 0.00 | 73 | 1018.2 |
| 20260903024904 | 66 | 241 | 2.0 | 5.0 | 0.00 | 0.00 | 0.00 | 74 | 1018.2 |
| 20260903024407 | 66 | 255 | 2.0 | 7.0 | 0.00 | 0.00 | 0.00 | 74 | 1018.3 |
| 20260903023908 | 66 | 277 | 2.0 | 7.0 | 0.00 | 0.00 | 0.00 | 74 | 1018.3 |
| 20260903023405 | 66 | 279 | 2.0 | 7.0 | 0.00 | 0.00 | 0.00 | 74 | 1018.4 |
| 20260903020901 | 65 | 189 | 2.0 | 7.0 | 0.00 | 0.00 | 0.00 | 75 | 1018.3 |
| 20260903015900 | 65 | 189 | 2.0 | 7.0 | 0.00 | 0.00 | 0.00 | 75 | 1018.2 |
| 20260903015354 | 65 | 190 | 2.0 | 7.0 | 0.00 | 0.00 | 0.00 | 75 | 1018.2 |
| 20260903014353 | 65 | 187 | 4.0 | 9.0 | 0.00 | 0.00 | 0.00 | 75 | 1018.3 |
| 20260903013852 | 65 | 185 | 4.0 | 9.0 | 0.00 | 0.00 | 0.00 | 75 | 1018.3 |
| 20260903012849 | 65 | 183 | 4.0 | 7.0 | 0.00 | 0.00 | 0.00 | 75 | 1018.3 |
| 20260903012351 | 65 | 180 | 4.0 | 9.0 | 0.00 | 0.00 | 0.00 | 75 | 1018.4 |
| 20260903011847 | 65 | 184 | 2.0 | 9.0 | 0.00 | 0.00 | 0.00 | 77 | 1018.5 |
| 20260903011347 | 65 | 191 | 2.0 | 9.0 | 0.00 | 0.00 | 0.00 | 77 | 1018.6 |
| 20260903010846 | 65 | 187 | 2.0 | 7.0 | 0.00 | 0.00 | 0.00 | 77 | 1018.7 |
| 20260903010347 | 65 | 186 | 2.0 | 7.0 | 0.00 | 0.00 | 0.00 | 77 | 1018.6 |
| 20260903005846 | 65 | 208 | 0.0 | 0.0 | 0.00 | 0.00 | 0.00 | 77 | 1018.6 |
| 20260903004842 | 66 | 208 | 0.0 | 2.0 | 0.00 | 0.00 | 0.00 | 75 | 1018.6 |
| 20260903004333 | 66 | 208 | 0.0 | 2.0 | 0.00 | 0.00 | 0.00 | 75 | 1018.7 |
| 20260903003836 | 66 | 208 | 0.0 | 4.0 | 0.00 | 0.00 | 0.00 | 75 | 1018.9 |
| 20260903003335 | 66 | 208 | 0.0 | 4.0 | 0.00 | 0.00 | 0.00 | 75 | 1019.0 |
| 20260903002831 | 66 | 208 | 2.0 | 4.0 | 0.00 | 0.00 | 0.00 | 75 | 1018.9 |
| 20260903002331 | 66 | 218 | 2.0 | 5.0 | 0.00 | 0.00 | 0.00 | 75 | 1018.8 |
| 20260903001833 | 66 | 210 | 2.0 | 9.0 | 0.00 | 0.00 | 0.00 | 75 | 1018.8 |
| 20260903001330 | 66 | 191 | 2.0 | 9.0 | 0.00 | 0.00 | 0.00 | 75 | 1018.9 |
| 20260903000832 | 66 | 186 | 2.0 | 9.0 | 0.00 | 0.00 | 0.00 | 75 | 1018.9 |
| 20260903000332 | 66 | 201 | 0.0 | 4.0 | 0.00 | 0.00 | 0.00 | 77 | 1019.1 |
| 20260902235335 | 66 | 201 | 2.0 | 7.0 | 0.00 | 0.00 | 0.00 | 77 | 1019.3 |
| 20260902234831 | 66 | 201 | 0.0 | 5.0 | 0.00 | 0.00 | 0.00 | 77 | 1019.5 |
| 20260902233834 | 66 | 289 | 2.0 | 7.0 | 0.00 | 0.00 | 0.00 | 77 | 1019.5 |
| 20260902233332 | 66 | 289 | 2.0 | 7.0 | 0.00 | 0.00 | 0.00 | 77 | 1019.5 |
| 20260902232834 | 66 | 209 | 0.0 | 4.0 | 0.00 | 0.00 | 0.00 | 77 | 1019.6 |
| 20260902232333 | 66 | 204 | 0.0 | 5.0 | 0.00 | 0.00 | 0.00 | 77 | 1019.7 |
| 20260902231833 | 66 | 203 | 2.0 | 5.0 | 0.00 | 0.00 | 0.00 | 78 | 1019.7 |
| 20260902225832 | 66 | 214 | 2.0 | 4.0 | 0.00 | 0.00 | 0.00 | 79 | 1019.8 |
| 20260902225330 | 66 | 214 | 0.0 | 4.0 | 0.00 | 0.00 | 0.00 | 79 | 1019.9 |
| 20260902224832 | 66 | 215 | 0.0 | 2.0 | 0.00 | 0.00 | 0.00 | 79 | 1019.9 |
| 20260902224333 | 66 | 215 | 0.0 | 4.0 | 0.00 | 0.00 | 0.00 | 79 | 1020.0 |
| 20260902223832 | 66 | 215 | 2.0 | 4.0 | 0.00 | 0.00 | 0.00 | 79 | 1020.0 |
| 20260902221825 | 65 | 193 | 0.0 | 7.0 | 0.00 | 0.00 | 0.00 | 79 | 1019.8 |
| 20260902221319 | 66 | 193 | 0.0 | 7.0 | 0.00 | 0.00 | 0.00 | 79 | 1019.8 |
| 20260902220822 | 66 | 193 | 0.0 | 4.0 | 0.00 | 0.00 | 0.00 | 79 | 1019.7 |
| 20260902220322 | 66 | 193 | 2.0 | 4.0 | 0.00 | 0.00 | 0.00 | 79 | 1019.8 |
| 20260902215819 | 66 | 193 | 2.0 | 7.0 | 0.00 | 0.00 | 0.00 | 79 | 1019.8 |
| 20260902215320 | 66 | 193 | 2.0 | 7.0 | 0.00 | 0.00 | 0.00 | 79 | 1019.7 |
| 20260902214810 | 66 | 193 | 2.0 | 7.0 | 0.00 | 0.00 | 0.00 | 79 | 1019.8 |
| 20260902213806 | 66 | 202 | 2.0 | 7.0 | 0.00 | 0.00 | 0.00 | 79 | 1019.7 |
| 20260902213307 | 66 | 202 | 0.0 | 7.0 | 0.00 | 0.00 | 0.00 | 79 | 1019.6 |
| 20260902212803 | 66 | 181 | 0.0 | 0.0 | 0.00 | 0.00 | 0.00 | 79 | 1019.8 |
| 20260902212305 | 66 | 180 | 0.0 | 0.0 | 0.00 | 0.00 | 0.00 | 79 | 1019.9 |
| 20260902211803 | 66 | 180 | 0.0 | 0.0 | 0.00 | 0.00 | 0.00 | 79 | 1019.9 |
| 20260902211304 | 66 | 180 | 0.0 | 0.0 | 0.00 | 0.00 | 0.00 | 78 | 1019.9 |
| 20260902210802 | 66 | 180 | 0.0 | 0.0 | 0.00 | 0.00 | 0.00 | 78 | 1019.9 |
| 20260902205750 | 66 | 180 | 0.0 | 0.0 | 0.00 | 0.00 | 0.00 | 78 | 1019.9 |
| 20260902205244 | 66 | 178 | 0.0 | 0.0 | 0.00 | 0.00 | 0.00 | 78 | 1020.0 |
| 20260902204734 | 66 | 178 | 0.0 | 0.0 | 0.00 | 0.00 | 0.00 | 78 | 1020.0 |
| 20260902204243 | 66 | 178 | 0.0 | 4.0 | 0.00 | 0.00 | 0.00 | 78 | 1019.8 |
| 20260902203733 | 66 | 178 | 0.0 | 4.0 | 0.00 | 0.00 | 0.00 | 78 | 1019.8 |
| 20260902203231 | 66 | 178 | 0.0 | 0.0 | 0.00 | 0.00 | 0.00 | 78 | 1020.0 |
| 20260902202731 | 66 | 178 | 0.0 | 0.0 | 0.00 | 0.00 | 0.00 | 78 | 1020.0 |
| 20260902202232 | 66 | 178 | 0.0 | 0.0 | 0.00 | 0.00 | 0.00 | 77 | 1020.0 |
| 20260902201732 | 66 | 178 | 0.0 | 0.0 | 0.00 | 0.00 | 0.00 | 77 | 1020.1 |
| 20260902200734 | 66 | 178 | 0.0 | 0.0 | 0.00 | 0.00 | 0.00 | 77 | 1020.1 |
| 20260902200233 | 66 | 178 | 0.0 | 0.0 | 0.00 | 0.00 | 0.00 | 77 | 1020.1 |
| 20260902195731 | 66 | 178 | 0.0 | 0.0 | 0.00 | 0.00 | 0.00 | 77 | 1020.1 |
| 20260902195231 | 66 | 178 | 0.0 | 0.0 | 0.00 | 0.00 | 0.00 | 77 | 1020.2 |
| 20260902194733 | 66 | 178 | 0.0 | 0.0 | 0.00 | 0.00 | 0.00 | 77 | 1020.2 |
| 20260902194235 | 66 | 178 | 0.0 | 0.0 | 0.00 | 0.00 | 0.00 | 77 | 1020.3 |
| 20260902193232 | 67 | 178 | 0.0 | 0.0 | 0.00 | 0.00 | 0.00 | 75 | 1020.3 |
| 20260902192731 | 67 | 178 | 0.0 | 0.0 | 0.00 | 0.00 | 0.00 | 75 | 1020.2 |
| 20260902192233 | 67 | 178 | 0.0 | 0.0 | 0.00 | 0.00 | 0.00 | 74 | 1020.2 |
| 20260902191733 | 67 | 178 | 0.0 | 0.0 | 0.00 | 0.00 | 0.00 | 74 | 1020.2 |
| 20260902191234 | 67 | 178 | 0.0 | 0.0 | 0.00 | 0.00 | 0.00 | 74 | 1020.3 |
| 20260902190733 | 67 | 178 | 0.0 | 0.0 | 0.00 | 0.00 | 0.00 | 73 | 1020.3 |
| 20260902190233 | 67 | 178 | 0.0 | 0.0 | 0.00 | 0.00 | 0.00 | 73 | 1020.2 |
| 20260902185732 | 68 | 178 | 0.0 | 0.0 | 0.00 | 0.00 | 0.00 | 73 | 1020.1 |
| 20260902184732 | 68 | 178 | 0.0 | 2.0 | 0.00 | 0.00 | 0.00 | 73 | 1020.0 |
| 20260902183733 | 68 | 178 | 0.0 | 4.0 | 0.00 | 0.00 | 0.00 | 72 | 1020.0 |
| 20260902183234 | 69 | 178 | 0.0 | 4.0 | 0.00 | 0.00 | 0.00 | 72 | 1020.1 |
| 20260902182732 | 69 | 178 | 0.0 | 4.0 | 0.00 | 0.00 | 0.00 | 72 | 1020.1 |
| 20260902182232 | 69 | 178 | 0.0 | 4.0 | 0.00 | 0.00 | 0.00 | 71 | 1020.0 |
| 20260902181735 | 69 | 178 | 0.0 | 5.0 | 0.00 | 0.00 | 0.00 | 71 | 1020.0 |
| 20260902181234 | 69 | 178 | 0.0 | 5.0 | 0.00 | 0.00 | 0.00 | 71 | 1020.0 |
| 20260902180734 | 69 | 174 | 0.0 | 4.0 | 0.00 | 0.00 | 0.00 | 71 | 1020.0 |
| 20260902180232 | 69 | 174 | 2.0 | 4.0 | 0.00 | 0.00 | 0.00 | 71 | 1019.9 |
| 20260902175731 | 69 | 176 | 2.0 | 5.0 | 0.00 | 0.00 | 0.00 | 71 | 1020.0 |
| 20260902175231 | 69 | 176 | 0.0 | 5.0 | 0.00 | 0.00 | 0.00 | 71 | 1020.0 |
| 20260902174730 | 70 | 172 | 0.0 | 4.0 | 0.00 | 0.00 | 0.00 | 70 | 1020.0 |
| 20260902174230 | 70 | 185 | 0.0 | 5.0 | 0.00 | 0.00 | 0.00 | 70 | 1020.0 |
| 20260902173732 | 70 | 185 | 2.0 | 5.0 | 0.00 | 0.00 | 0.00 | 70 | 1020.0 |
| 20260902173229 | 70 | 183 | 2.0 | 5.0 | 0.00 | 0.00 | 0.00 | 70 | 1020.0 |
| 20260902172732 | 70 | 176 | 2.0 | 5.0 | 0.00 | 0.00 | 0.00 | 69 | 1020.1 |
| 20260902171716 | 70 | 176 | 2.0 | 5.0 | 0.00 | 0.00 | 0.00 | 69 | 1020.0 |
| 20260902170709 | 70 | 175 | 2.0 | 7.0 | 0.00 | 0.00 | 0.00 | 69 | 1020.0 |
| 20260902165711 | 70 | 205 | 2.0 | 4.0 | 0.00 | 0.00 | 0.00 | 69 | 1020.1 |
| 20260902165206 | 70 | 205 | 2.0 | 9.0 | 0.00 | 0.00 | 0.00 | 68 | 1020.3 |
| 20260902163706 | 71 | 176 | 2.0 | 5.0 | 0.00 | 0.00 | 0.00 | 67 | 1020.2 |
| 20260902163203 | 71 | 177 | 2.0 | 7.0 | 0.00 | 0.00 | 0.00 | 66 | 1020.2 |
| 20260902162705 | 71 | 177 | 2.0 | 11.0 | 0.00 | 0.00 | 0.00 | 66 | 1020.4 |
| 20260902162204 | 71 | 161 | 4.0 | 11.0 | 0.00 | 0.00 | 0.00 | 66 | 1020.4 |
| 20260902161704 | 71 | 280 | 4.0 | 11.0 | 0.00 | 0.00 | 0.00 | 65 | 1020.5 |
| 20260902161203 | 71 | 301 | 2.0 | 7.0 | 0.00 | 0.00 | 0.00 | 66 | 1020.6 |
| 20260902160704 | 71 | 316 | 2.0 | 7.0 | 0.00 | 0.00 | 0.00 | 66 | 1020.5 |
| 20260902155701 | 71 | 220 | 4.0 | 12.0 | 0.00 | 0.00 | 0.00 | 66 | 1020.5 |
| 20260902155158 | 71 | 174 | 4.0 | 9.0 | 0.00 | 0.00 | 0.00 | 67 | 1020.5 |
| 20260902154655 | 71 | 242 | 2.0 | 7.0 | 0.00 | 0.00 | 0.00 | 67 | 1020.6 |
| 20260902154150 | 70 | 187 | 4.0 | 9.0 | 0.00 | 0.00 | 0.00 | 68 | 1020.6 |
| 20260902153151 | 70 | 158 | 4.0 | 9.0 | 0.00 | 0.00 | 0.00 | 68 | 1020.7 |
| 20260902152648 | 70 | 183 | 4.0 | 7.0 | 0.00 | 0.00 | 0.00 | 68 | 1020.7 |
| 20260902152148 | 70 | 136 | 4.0 | 7.0 | 0.00 | 0.00 | 0.00 | 68 | 1020.8 |
| 20260902151645 | 70 | 300 | 2.0 | 9.0 | 0.00 | 0.00 | 0.00 | 68 | 1020.8 |
| 20260902151137 | 70 | 199 | 2.0 | 9.0 | 0.00 | 0.00 | 0.00 | 68 | 1020.9 |
| 20260902150637 | 70 | 317 | 2.0 | 7.0 | 0.00 | 0.00 | 0.00 | 68 | 1020.8 |
| 20260902150136 | 70 | 316 | 4.0 | 7.0 | 0.00 | 0.00 | 0.00 | 68 | 1020.8 |
| 20260902145638 | 70 | 276 | 4.0 | 11.0 | 0.00 | 0.00 | 0.00 | 69 | 1020.9 |
| 20260902145135 | 70 | 321 | 4.0 | 14.0 | 0.00 | 0.00 | 0.00 | 69 | 1021.0 |
| 20260902144633 | 70 | 316 | 5.0 | 14.0 | 0.00 | 0.00 | 0.00 | 69 | 1021.0 |
| 20260902144135 | 70 | 297 | 4.0 | 14.0 | 0.00 | 0.00 | 0.00 | 68 | 1021.0 |
| 20260902143634 | 70 | 284 | 4.0 | 11.0 | 0.00 | 0.00 | 0.00 | 68 | 1021.1 |
| 20260902143132 | 70 | 319 | 4.0 | 12.0 | 0.00 | 0.00 | 0.00 | 68 | 1021.1 |
| 20260902142630 | 70 | 323 | 5.0 | 12.0 | 0.00 | 0.00 | 0.00 | 67 | 1021.1 |
| 20260902142132 | 70 | 326 | 7.0 | 20.0 | 0.00 | 0.00 | 0.00 | 68 | 1021.1 |
| 20260902141633 | 70 | 291 | 7.0 | 20.0 | 0.00 | 0.00 | 0.00 | 67 | 1021.1 |
| 20260902141132 | 70 | 62 | 5.0 | 16.0 | 0.00 | 0.00 | 0.00 | 67 | 1021.1 |
| 20260902140630 | 70 | 289 | 5.0 | 14.0 | 0.00 | 0.00 | 0.00 | 69 | 1021.1 |
| 20260902140132 | 70 | 284 | 7.0 | 18.0 | 0.00 | 0.00 | 0.00 | 69 | 1021.0 |
| 20260902135131 | 70 | 285 | 7.0 | 18.0 | 0.00 | 0.00 | 0.00 | 68 | 1021.1 |
| 20260902134630 | 70 | 297 | 5.0 | 18.0 | 0.00 | 0.00 | 0.00 | 68 | 1021.1 |
| 20260902133631 | 70 | 287 | 7.0 | 22.0 | 0.00 | 0.00 | 0.00 | 67 | 1021.1 |
| 20260902132630 | 71 | 264 | 7.0 | 23.0 | 0.00 | 0.00 | 0.00 | 66 | 1021.0 |
| 20260902131630 | 71 | 325 | 5.0 | 18.0 | 0.00 | 0.00 | 0.00 | 66 | 1021.0 |
| 20260902131132 | 71 | 293 | 5.0 | 18.0 | 0.00 | 0.00 | 0.00 | 66 | 1020.9 |
| 20260902130631 | 72 | 233 | 5.0 | 18.0 | 0.00 | 0.00 | 0.00 | 65 | 1020.8 |
| 20260902130132 | 72 | 336 | 4.0 | 12.0 | 0.00 | 0.00 | 0.00 | 64 | 1020.8 |
| 20260902125630 | 73 | 310 | 5.0 | 14.0 | 0.00 | 0.00 | 0.00 | 63 | 1020.8 |
| 20260902125132 | 73 | 288 | 4.0 | 12.0 | 0.00 | 0.00 | 0.00 | 63 | 1020.9 |
| 20260902124631 | 73 | 288 | 4.0 | 11.0 | 0.00 | 0.00 | 0.00 | 63 | 1020.9 |
| 20260902123632 | 72 | 168 | 5.0 | 14.0 | 0.00 | 0.00 | 0.00 | 65 | 1021.0 |
| 20260902123132 | 72 | 277 | 5.0 | 16.0 | 0.00 | 0.00 | 0.00 | 64 | 1020.9 |
| 20260902122636 | 73 | 309 | 5.0 | 16.0 | 0.00 | 0.00 | 0.00 | 65 | 1020.9 |
| 20260902122133 | 71 | 174 | 5.0 | 16.0 | 0.00 | 0.00 | 0.00 | 66 | 1020.9 |
| 20260902121632 | 71 | 278 | 5.0 | 16.0 | 0.00 | 0.00 | 0.00 | 65 | 1021.0 |
| 20260902121131 | 72 | 301 | 4.0 | 12.0 | 0.00 | 0.00 | 0.00 | 65 | 1021.0 |
| 20260902120633 | 72 | 250 | 4.0 | 11.0 | 0.00 | 0.00 | 0.00 | 65 | 1020.9 |
| 20260902120133 | 72 | 279 | 5.0 | 14.0 | 0.00 | 0.00 | 0.00 | 64 | 1020.9 |
| 20260902115632 | 72 | 308 | 5.0 | 14.0 | 0.00 | 0.00 | 0.00 | 65 | 1021.0 |
| 20260902115132 | 72 | 304 | 5.0 | 14.0 | 0.00 | 0.00 | 0.00 | 66 | 1021.0 |
| 20260902114635 | 72 | 283 | 4.0 | 12.0 | 0.00 | 0.00 | 0.00 | 67 | 1020.9 |
| 20260902114132 | 71 | 336 | 4.0 | 12.0 | 0.00 | 0.00 | 0.00 | 68 | 1020.9 |
| 20260902113634 | 71 | 315 | 4.0 | 9.0 | 0.00 | 0.00 | 0.00 | 68 | 1021.0 |
| 20260902113133 | 71 | 55 | 5.0 | 14.0 | 0.00 | 0.00 | 0.00 | 68 | 1020.9 |
| 20260902112633 | 71 | 305 | 5.0 | 14.0 | 0.00 | 0.00 | 0.00 | 68 | 1021.0 |
| 20260902111635 | 71 | 305 | 5.0 | 16.0 | 0.00 | 0.00 | 0.00 | 68 | 1021.1 |